Selinsgrove, PA

10:41 AM EST on December 07, 2016 (GMT -0500)
Penn Valley

Weather History for KSEG - February, 2014

Change the Weather History Date:

Tuesday, February 25, 2014

  Actual Average (KIPT) Record (KIPT)
Temperature  
Mean Temperature 22 °F 32 °F  
Max Temperature 30 °F 41 °F 69 °F (1976)
Min Temperature 14 °F 23 °F -9 °F (1914)
Degree Days  
Heating Degree Days 43 33  
Month to date heating degree days 890  
Since 1 July heating degree days 4369  
Cooling Degree Days 0 0  
Month to date cooling degree days 0  
Year to date cooling degree days 0  
Moisture  
Dew Point 11 °F    
Average Humidity 61    
Maximum Humidity 80    
Minimum Humidity 45    
Precipitation  
Precipitation 0.00 in 0.09 in 0.84 in (2011)
Month to date precipitation 2.09  
Year to date precipitation 4.79  
Snow  
Snow 0.00 in 0.30 in 3.70 in (1966)
Month to date snowfall 7.9  
Since 1 July snowfall 27.1  
Snow Depth -    
Sea Level Pressure  
Sea Level Pressure 30.06 in    
Wind  
Wind Speed 3 mph (West)    
Max Wind Speed 14 mph    
Max Gust Speed 20 mph    
Visibility 10 miles    
Events      
T = Trace of Precipitation, MM = Missing Value Source: NWS Daily Summary

Daily Weather History Graph

Daily Weather History Graph

Search for Another Location

Airport or City:

Trip Planner

Search our weather history database for the weather conditions in past years. The results will help you decide how hot, cold, wet, or windy it might be!

Date:

Astronomy

Feb. 25, 2014 Rise Set
Actual Time 6:47 AM EST 5:54 PM EST
Civil Twilight 6:19 AM EST 6:21 PM EST
Nautical Twilight 5:48 AM EST 6:53 PM EST
Astronomical Twilight 5:16 AM EST 7:25 PM EST
Moon 3:41 AM EST (2/25) 1:56 PM EST (2/25)
Length of Visible Light 12h 01m
Length of Day
11h 06m
Waning Crescent, 18% of the Moon is Illuminated
Feb 25
Waning Crescent
Mar 1
New
Mar 8
First Quarter
Mar 16
Full
Mar 23
Last Quarter

Hourly Weather History & Observations

Time (EST) Temp. Windchill Dew Point Humidity Pressure Visibility Wind Dir Wind Speed Gust Speed Precip Events Conditions
12:53 AM 19.9 °F - 10.0 °F 65% 30.11 in 10.0 mi Calm Calm - N/A   Clear
1:53 AM 17.1 °F - 10.0 °F 74% 30.11 in 10.0 mi Calm Calm - N/A   Clear
2:53 AM 15.1 °F - 9.0 °F 77% 30.10 in 10.0 mi Calm Calm - N/A   Clear
3:53 AM 16.0 °F - 10.0 °F 77% 30.09 in 10.0 mi Calm Calm - N/A   Clear
4:53 AM 14.0 °F - 9.0 °F 80% 30.09 in 10.0 mi Calm Calm - N/A   Clear
5:53 AM 21.0 °F 16.2 °F 10.9 °F 65% 30.08 in 10.0 mi WSW 3.5 mph - N/A   Mostly Cloudy
6:53 AM 23.0 °F 18.4 °F 10.0 °F 58% 30.08 in 10.0 mi SW 3.5 mph - N/A   Overcast
7:53 AM 24.1 °F 19.7 °F 10.9 °F 57% 30.10 in 10.0 mi SW 3.5 mph - N/A   Overcast
8:53 AM 26.1 °F - 10.9 °F 53% 30.09 in 10.0 mi Calm Calm - N/A   Mostly Cloudy
9:53 AM 27.0 °F 18.0 °F 12.0 °F 53% 30.09 in 10.0 mi West 9.2 mph - N/A   Overcast
10:53 AM 27.0 °F 20.5 °F 14.0 °F 58% 30.09 in 7.0 mi Variable 5.8 mph - 0.00 in   Overcast
11:53 AM 27.0 °F 18.7 °F 14.0 °F 58% 30.07 in 10.0 mi WSW 8.1 mph 17.3 mph 0.00 in   Overcast
12:53 PM 28.0 °F 19.3 °F 12.9 °F 53% 30.04 in 10.0 mi West 9.2 mph 19.6 mph N/A   Overcast
1:53 PM 30.0 °F 21.7 °F 14.0 °F 51% 30.02 in 10.0 mi West 9.2 mph 16.1 mph N/A   Mostly Cloudy
2:53 PM 30.0 °F 21.1 °F 12.0 °F 47% 30.01 in 10.0 mi West 10.4 mph 19.6 mph 0.00 in   Overcast
3:53 PM 30.0 °F 19.5 °F 10.9 °F 45% 30.01 in 10.0 mi NW 13.8 mph 19.6 mph N/A   Mostly Cloudy
4:53 PM 28.0 °F 19.3 °F 10.0 °F 47% 30.01 in 10.0 mi NW 9.2 mph - N/A   Scattered Clouds
5:53 PM 28.0 °F 20.8 °F 9.0 °F 45% 30.02 in 10.0 mi WNW 6.9 mph - N/A   Mostly Cloudy
6:53 PM 26.1 °F 20.5 °F 9.0 °F 49% 30.04 in 10.0 mi West 4.6 mph - N/A   Clear
7:53 PM 23.0 °F - 10.0 °F 58% 30.05 in 10.0 mi Calm Calm - N/A   Clear
8:53 PM 19.9 °F - 10.9 °F 68% 30.04 in 10.0 mi Calm Calm - N/A   Clear
9:53 PM 19.0 °F - 10.9 °F 71% 30.02 in 10.0 mi Calm Calm - N/A   Scattered Clouds
10:53 PM 19.0 °F - 10.9 °F 71% 30.00 in 10.0 mi Calm Calm - N/A   Mostly Cloudy
11:53 PM 18.0 °F - 12.0 °F 78% 29.99 in 10.0 mi Calm Calm - N/A   Overcast